Location: Caracas
(10.5033°N, 66.8422°W)
Time: 09:28:43
(UTC-04:00)

ISS - Visible Passes

Search period start: 19 February 2018 00:00
Search period end: 01 March 2018 00:00
Orbit: 403 x 407 km, 51.6° (Epoch: 20 February)

Date Brightness Start Highest point End Pass type
(mag) Time Alt. Az. Time Alt. Az. Time Alt. Az.
20 Feb -0.8 06:18:07 10° S 06:20:32 19° SE 06:22:57 10° ENE visible
22 Feb -3.8 06:09:12 10° SSW 06:12:27 81° SE 06:15:42 10° NE visible
23 Feb -1.7 05:18:12 14° S 05:20:18 27° SE 05:23:07 10° ENE visible
24 Feb -2.6 06:02:47 16° W 06:04:23 23° NW 06:07:04 10° N visible
25 Feb -1.8 05:14:09 21° NNE 05:14:09 21° NNE 05:15:23 10° NNE visible
